Flag for Indonesia Weather past 2 weeks in Makassar, South Sulawesi, Indonesia

Now
86 °F

Scattered clouds.


Feels Like: 97 °F
Forecast: 77 / 87 °F
Wind: 10 mph from Northwest

Location: Ujung Pandang / Hasanuddin

Current Time: Dec 19, 2014 at 4:16:54 PM

Latest Report: Dec 19, 2014 at 3:30 PM


Visibility: N/A

Pressure: 29.80 "Hg

Humidity: 75%

Dew point: 77 °F

Location of MakassarLocation

Historic Weather in Makassar — Graph

°F

Makassar temperature yesterday

Maximum temperature yesterday: 90 °F (at 11:00 AM)
Minimum temperature yesterday: 75 °F (at 1:30 AM)
Average temperature yesterday: 82 °F

Past Weeks' High & Low Weather Summary

 TemperatureHumidityPressure
High93 °F (Dec 13, 12:30 PM)100% (Dec 4, 10:00 PM)29.92 "Hg (Dec 4, 10:00 PM)
Low73 °F (Dec 5, 4:00 PM)53% (Dec 13, 1:30 PM)29.74 "Hg (Dec 7, 3:30 PM)
Average80 °F88%29.82 "Hg
* Reported Dec 4 3:00 PM — Dec 19 3:00 PM, Makassar, Weather by CustomWeather, © 2014

Note: Actual official high and low records may vary slightly from our data, if they occured in-between our weather recording intervals... More about our weather records

Advertising

Makassar weather history for previous 24 hours

 ConditionsComfort  
Time TempWeatherWind HumidityBarometerVisibility
3:00 PM
Dec 19
86 °FScattered clouds.10 mph70%29.80 "HgN/A
2:00 PM88 °FPartly sunny.12 mph70%29.83 "HgN/A
1:30 PM90 °FScattered clouds.9 mph71%29.83 "HgN/A
1:00 PM88 °FScattered clouds.7 mph70%29.83 "HgN/A
12:30 PM90 °FScattered clouds.6 mph71%29.86 "HgN/A
12:00 PM88 °FScattered clouds.5 mph70%29.89 "HgN/A
11:30 AM88 °FPassing clouds.5 mph66%29.89 "HgN/A
11:00 AM88 °FPassing clouds.3 mph70%29.89 "HgN/A
10:30 AM88 °FPassing clouds.2 mph66%29.89 "HgN/A
10:00 AM86 °FPassing clouds.3 mph75%29.92 "HgN/A
9:30 AM84 °FPassing clouds.2 mph74%29.92 "HgN/A
9:00 AM82 °FPassing clouds.3 mph84%29.92 "HgN/A
8:30 AM82 °FPassing clouds.5 mph84%29.89 "HgN/A
8:00 AM81 °FPassing clouds.3 mph94%29.89 "HgN/A
7:30 AM79 °FLight rain. Scattered clouds.3 mph94%29.89 "Hg5 mi
7:00 AM79 °FScattered clouds.2 mph94%29.89 "Hg6 mi
6:30 AM77 °FLight rain. Scattered clouds.5 mph100%29.86 "Hg5 mi
6:00 AM77 °FLight rain. Partly sunny.3 mph100%29.86 "Hg5 mi
5:00 AM77 °FPassing clouds.3 mph100%29.83 "Hg5 mi
4:00 AM79 °FPassing clouds.5 mph94%29.83 "Hg5 mi
3:00 AM79 °FPassing clouds.3 mph94%29.83 "Hg5 mi
2:30 AM79 °FPassing clouds.3 mph94%29.83 "Hg5 mi
2:00 AM77 °FPassing clouds.5 mph100%29.83 "Hg5 mi
1:30 AM77 °FPassing clouds.3 mph100%29.83 "Hg5 mi
1:00 AM77 °FPassing clouds.2 mph100%29.83 "Hg5 mi
12:30 AM79 °FPassing clouds.3 mph94%29.83 "Hg5 mi
12:00 AM79 °FPassing clouds.3 mph94%29.86 "Hg5 mi
9:00 PM
Dec 18
81 °FPassing clouds.5 mph94%29.83 "Hg5 mi
8:30 PM82 °FPassing clouds.5 mph89%29.86 "Hg5 mi
8:00 PM84 °FThunderstorms. Passing clouds.2 mph79%29.83 "Hg4 mi
7:30 PM84 °FThunderstorms. Passing clouds.3 mph79%29.83 "Hg4 mi
7:00 PM84 °FPassing clouds.3 mph79%29.83 "Hg4 mi
6:00 PM84 °FLight rain. Scattered clouds.6 mph79%29.77 "Hg4 mi
5:30 PM84 °FLight rain. Scattered clouds.8 mph84%29.77 "Hg4 mi
5:00 PM84 °FScattered clouds.7 mph79%29.77 "Hg5 mi
4:30 PM86 °FScattered clouds.7 mph75%29.74 "Hg5 mi
4:00 PM86 °FScattered clouds.8 mph75%29.74 "Hg5 mi
Weather by CustomWeather, © 2014

See weather overviewHow to use our weather pages